sat.trackr.live / text

‹ back to catalog

STARLINK-35700

NORAD 66217 · 2025-244M

PAYLOAD ACTIVE UNKNOWN

§ Identity

Operator
Country
US
Launch date
2025-10-28
Launch site
AFWTR
Launch vehicle
Mass (kg)
RCS (m²)

Purposes: comms

External: N2YO · Heavens-Above · Gunter

§ Orbital elements

Epoch: 2026-09-20T14:28:27.598080Z

Period
93.85 min
Inclination
53.1598°
Eccentricity
0.0000795
Mean motion
15.34416143 rev/d
Perigee alt
462.1 km
Apogee alt
463.2 km
Semi-major
6,840.8 km
B*
6.8334e-4
RAAN
43.0011°
Arg perigee
59.9123°
Mean anomaly
300.1959°
Rev number
5,151

§ Raw data

STARLINK-357001 66217U 25244M   26263.60309720  .00022793  00000+0  68334-3 0  99942 66217  53.1598  43.0011 0000795  59.9123 300.1959 15.34416143 51515

JSON: /api/v1/satellites/66217 · /tle

For live sub-satellite position, see the globe view (requires WebGL).

§ Visibility from observer

Set your observer location to see the next 7 days of passes ≥ 10°. The values pass through the URL so the page stays shareable.

No JS? Fill the form by hand. The geolocation button needs JavaScript.